FENGYUN 1C DEB, 29740

Orbit data source: Space-Track

FENGYUN 1C DEB, 29740 is space debris in SSO originally from a launch on Mon, 10 May 1999 UTC launched from the Taiyaun Space Center, China (TSC). Fengyun 1C debris stems from the Chinese weather satellite Fengyun-1C, which was intentionally destroyed by a Chinese anti-satellite missile in 2007. This event dramatically increased the amount of space debris, with thousands of trackable fragments posing hazards to satellites and human spaceflight. The Fengyun 1C debris cloud has become a focal point in discussions about space sustainability and the need for international regulations to prevent the creation of new debris.

Loading next visibility...
Identifier
29740, 1999-025AE
Orbit
SSO
Country
Flag of CNCN / PRC
Related business
Manufacturer
Unknown
Mission
Spacecraft
Bus & Motor
Unknown
Mass
Unknown
Launch date (UTC)
1999-05-10 (26 years ago)
Launch vehicle
Unknown
Launch site
Taiyaun Space Center, China (TSC)
Object type
Payload
Rocket body
Debris
Shape & HBR
Unknown shape, 0.1 m
Radar Cross Section
Small (<0.1 m²)

Expand to show TLE details & history
Last TLE update: 2 days ago

TLE from 2 days ago
0 FENGYUN 1C DEB
1 29740U 99025AE  25304.85831034  .00000890  00000-0  23398-2 0  9997
2 29740  99.0412 168.3413 0982182 282.2293  67.0599 12.08298192824296
Epoch: 2025-10-31T20:35Z
TLE epoch observation values (Epoch: 2025-10-31T20:35:58.013Z)
Latitude
-0.00006°
Longitude
178.95288°
Altitude
1,408.614 km
Speed
7.261 km/s
True Right ascension
11h 13m 21s
True Declination
0° 00' 00"
Sunlit
Object was in daylight at epoch
Visualization orbit readout
Latitude
Unknown
Longitude
Unknown
Altitude
Unknown
Speed
Unknown
Apparent Right ascension
Unknown
Apparent Declination
Unknown
Sunlit
N/A
Visualization observer readout
Local Sidereal Time
01:21:14
Azimuth
Unknown
Elevation
Unknown
Doppler factor
Unknown
Orbital elements
Apogee altitude
2,429.006 km
Perigee altitude
853.688 km
Semi-major axis
8,019.484 km
Eccentricity
0.09822
Inclination
99.0412°
RAAN
168.3413°
Arg. of periapsis
282.2293°
True anomaly
77.87953°
Mean anomaly
67.0599°
Eccentric anomaly
72.4247°
Mean motion
3.0222 °/min
Orbital period
119.12 mins
BSTAR
0.0023398
Loading maneuver chart data...
Computing Atmospheric mass density...

Documentation

Showing up to 5 results
|